Location: Meadowbank Aerodrome
(65.0250°N, 96.0705°W)
Time: 23:12:53
(UTC-06:00)

Cosmos 2221 - Visible Passes

Search period start: 22 December 2014 00:00
Search period end: 01 January 2015 00:00
Orbit: 596 x 622 km, 82.5° (Epoch: 21 December)

Date Brightness Start Highest point End Pass type
(mag) Time Alt. Az. Time Alt. Az. Time Alt. Az.
22 Dec 4.9 06:53:45 10° SE 06:57:13 24° E 07:00:41 10° NNE visible
22 Dec 2.5 08:30:08 10° SSW 08:34:29 83° WNW 08:38:49 10° NNE visible
22 Dec 3.3 16:47:07 10° N 16:50:56 30° NE 16:54:43 10° ESE visible
22 Dec 2.6 18:24:43 10° NNW 18:29:02 74° WSW 18:33:18 10° S visible
22 Dec 5.2 20:03:08 10° NW 20:06:03 18° W 20:08:57 10° WSW visible
23 Dec 4.4 07:07:24 10° SSE 07:11:15 32° E 07:15:06 10° NNE visible
23 Dec 2.6 08:44:27 10° SSW 08:48:45 61° WNW 08:53:02 10° NNE visible
23 Dec 2.9 17:01:17 10° N 17:05:20 38° ENE 17:09:21 10° SE visible
23 Dec 3.3 18:39:00 10° NNW 18:43:12 53° W 18:47:21 10° S visible
23 Dec 5.6 20:17:54 10° NW 20:19:58 13° WNW 20:22:02 10° WSW visible
24 Dec 5.8 05:47:16 10° E 05:48:40 11° ENE 05:50:04 10° NE visible
24 Dec 3.7 07:21:13 10° SSE 07:25:20 44° E 07:29:27 10° NNE visible
24 Dec 2.8 08:58:54 10° SW 09:03:04 45° WNW 09:07:14 10° NNE visible
24 Dec 3.9 15:38:06 10° N 15:41:00 17° NE 15:43:53 10° E visible
24 Dec 2.6 17:15:27 10° NNW 17:19:41 51° ENE 17:23:52 10° SE visible
24 Dec 3.9 18:53:19 10° NNW 18:57:18 38° W 19:01:15 10° SSW visible
25 Dec 5.6 06:00:00 10° ESE 06:02:33 16° ENE 06:05:06 10° NE visible
25 Dec 3.1 07:35:12 10° S 07:39:28 62° E 07:43:44 10° NNE visible
25 Dec 3.7 15:52:11 10° N 15:55:31 21° NE 15:58:49 10° E visible
25 Dec 2.4 17:29:39 10° NNW 17:33:58 70° ENE 17:38:14 10° SSE visible
25 Dec 4.6 19:07:41 10° NNW 19:11:20 28° W 19:14:59 10° SSW visible
26 Dec 5.1 06:13:16 10° SE 06:16:30 21° E 06:19:43 10° NE visible
26 Dec 2.5 07:49:18 10° SSW 07:53:38 85° ESE 07:57:58 10° NNE visible
26 Dec 3.4 16:06:18 10° N 16:09:59 26° NE 16:13:38 10° ESE visible
26 Dec 2.5 17:43:52 10° NNW 17:48:11 85° WSW 17:52:29 10° SSE visible
26 Dec 5.1 19:22:08 10° NW 19:25:19 21° W 19:28:31 10° SW visible
27 Dec 4.6 06:26:48 10° SSE 06:30:29 28° E 06:34:09 10° NNE visible
27 Dec 2.4 08:03:33 10° SSW 08:07:52 70° WNW 08:12:11 10° NNE visible
27 Dec 3.1 16:20:26 10° N 16:24:23 34° ENE 16:28:19 10° ESE visible
27 Dec 3.0 17:58:06 10° NNW 18:02:21 62° W 18:06:35 10° S visible
27 Dec 5.5 19:36:44 10° NW 19:39:15 15° WNW 19:41:45 10° WSW visible
28 Dec 4.0 06:40:31 10° SSE 06:44:31 38° E 06:48:30 10° NNE visible
28 Dec 2.6 08:17:55 10° SW 08:22:08 51° WNW 08:26:21 10° NNE visible
28 Dec 2.8 16:34:35 10° NNW 16:38:44 45° ENE 16:42:51 10° SE visible
28 Dec 3.7 18:12:22 10° NNW 18:16:28 44° W 18:20:32 10° SSW visible
28 Dec 5.9 19:51:47 10° NW 19:53:07 11° WNW 19:54:27 10° W visible
29 Dec 5.7 05:19:43 10° ESE 05:21:48 13° ENE 05:23:54 10° NE visible
29 Dec 3.3 06:54:24 10° S 06:58:36 53° E 07:02:47 10° NNE visible
29 Dec 3.0 08:32:24 10° SW 08:36:27 38° WNW 08:40:30 10° N visible
29 Dec 2.5 16:48:45 10° NNW 16:53:01 61° ENE 16:57:16 10° SSE visible
29 Dec 4.3 18:26:41 10° NNW 18:30:31 32° W 18:34:20 10° SSW visible
30 Dec 5.3 05:32:46 10° SE 05:35:42 18° E 05:38:37 10° NE visible
30 Dec 2.7 07:08:26 10° S 07:12:43 74° ESE 07:17:02 10° NNE visible
30 Dec 3.3 08:47:01 10° WSW 08:50:49 30° NW 08:54:38 10° N visible
30 Dec 2.4 17:02:56 10° NNW 17:07:15 83° ENE 17:11:33 10° SSE visible
30 Dec 4.9 18:41:04 10° NNW 18:44:30 24° W 18:47:56 10° SW visible
31 Dec 4.8 05:46:10 10° SE 05:49:38 24° E 05:53:06 10° NNE visible
31 Dec 2.4 07:22:35 10° SSW 07:26:54 81° WNW 07:31:14 10° NNE visible
31 Dec 3.6 09:01:44 10° WSW 09:05:14 24° NW 09:08:44 10° N visible
31 Dec 2.8 17:17:08 10° NNW 17:21:26 72° WSW 17:25:42 10° S visible
31 Dec 5.4 18:55:34 10° NW 18:58:26 18° W 19:01:18 10° WSW visible
